Location: ?????????
(55.6553°N, 38.9075°E)
Time: 12:33:51
(UTC+00:00)

Daily predictions for brighter satellites

Satellite Brightness Start Highest point End
(mag) Time Altitude Azimuth Time Altitude Azimuth Time Altitude Azimuth
Cosmos 44 3.5 17:39:24 10° NW 17:44:12 66° NE 17:49:14 10° ESE
FALCON 9 DEB 4.0 17:44:04 10° SW 17:47:12 31° SSE 17:50:20 10° E
CZ-2C R/B 3.7 17:43:45 10° NNE 17:48:21 64° ESE 17:52:51 10° S
USA 267 4.2 17:45:30 10° ENE 17:50:38 24° SE 17:55:46 10° S
COSMOS 2428 4.4 17:46:12 10° NNW 17:50:54 25° NNE 17:55:36 10° E
NOSS 3-2 (A) 3.9 17:46:19 10° S 17:51:36 37° ESE 17:57:36 10° ENE
Cosmos 614 Rocket 4.3 17:47:50 10° SSW 17:53:02 77° WNW 17:58:18 10° NNE
OBJECT-B 2.2 17:50:10 10° S 17:53:18 40° W 17:56:28 10° NNW
Cosmos 1697 Rocket 4.3 17:49:59 10° NW 17:54:52 31° WSW 17:59:44 10° SSW
Cosmos 1833 Rocket 2.8 17:51:35 10° SSW 17:57:14 90° NNW 18:02:55 10° NE
Cosmos 1470 Rocket 3.9 17:53:47 10° SSE 17:57:58 44° E 18:02:08 10° NNE
Cosmos 2237 Rocket 4.3 17:56:39 10° NNW 18:00:44 20° NNE 18:04:48 10° ENE
NOSS 3-2 (C) 4.2 17:56:07 10° S 18:01:03 29° ESE 18:06:33 10° ENE
Meteor 1-4 Rocket 3.5 17:58:28 10° NNW 18:01:49 45° W 18:05:07 10° S
Sich 1 3.7 18:00:09 10° SSW 18:04:33 63° WNW 18:08:59 10° N
Cosmos 540 Rocket 4.0 18:00:10 10° NNW 18:05:14 50° NE 18:10:07 11° SE
SPOT 5 3.4 18:01:30 10° SE 18:05:32 39° ENE 18:09:42 10° N
Cosmos 1184 Rocket 2.8 18:03:28 10° S 18:06:44 63° E 18:10:01 10° NNE
Cosmos 1862 Rocket 3.9 18:03:18 10° NNW 18:07:46 71° W 18:12:11 10° S
Cosmos 1934 Rocket 4.1 18:01:58 10° S 18:08:20 81° E 18:14:43 10° NNE
Cosmos 2333 Rocket 3.5 18:04:33 10° NNW 18:09:42 32° NE 18:14:49 10° E
SPOT 1/Viking Rocket 3.6 18:04:56 10° SSE 18:10:08 71° ENE 18:15:22 10° NNW
Cosmos 1437 Rocket 3.0 18:07:19 10° N 18:11:04 53° ENE 18:14:34 11° SSE
Cosmos 405 Rocket 3.2 18:08:10 10° SSE 18:11:39 39° E 18:15:12 10° NNE
SL-27 R/B 4.0 18:13:03 13° SE 18:14:41 17° E 18:16:55 10° ENE
USA 32 4.0 18:09:56 10° S 18:15:07 69° E 18:20:20 10° NNE
Landsat 7 3.8 18:10:31 10° SSE 18:15:17 88° ENE 18:20:05 10° NNW
Resurs 01 Rocket 2.5 18:12:29 10° S 18:16:46 48° W 18:21:06 10° NNW
Cosmos 1515 3.9 18:14:58 10° N 18:18:46 58° ENE 18:22:10 12° SSE
ERBS 2.6 18:17:06 10° W 18:20:25 67° N 18:23:43 10° E
Meteor 1-19 Rocket 4.1 18:14:58 10° NNW 18:20:26 78° ENE 18:25:55 10° SSE
Cosmos 676 Rocket 4.0 18:15:10 10° SSW 18:20:30 75° ESE 18:25:52 10° NNE
ERS-1 Rocket 3.1 18:16:12 11° SSE 18:20:59 61° ENE 18:25:57 10° N
GP-B 3.1 18:17:07 10° N 18:21:36 89° ENE 18:26:03 10° S
OPS 6432 4.3 18:17:56 10° SW 18:21:38 64° SE 18:24:40 10° NE
Cosmos 841 Rocket 3.7 18:17:35 10° NNW 18:22:49 66° ENE 18:27:24 14° SE
Okean 1 3.4 18:22:20 10° NNW 18:26:25 88° W 18:30:28 10° S
USA 234 3.4 18:23:26 12° ESE 18:29:39 70° SSW 18:36:12 10° WNW
Cosmos 468 Rocket 4.4 18:24:54 10° NNW 18:30:11 64° WSW 18:35:21 10° SSE
ATLAS 3B R/B 3.8 18:27:32 11° SSE 18:31:50 21° ESE 18:36:30 10° ENE
Cosmos 1867 3.5 18:27:59 10° SW 18:33:26 79° SE 18:38:56 10° NE
CARTOSAT-1 3.6 18:29:48 13° SSE 18:33:36 72° ENE 18:37:56 10° NNW
Okean 3 4.2 18:32:52 10° N 18:36:57 40° ENE 18:39:55 17° SE
Meteor 2-4 Rocket 3.8 18:31:52 10° NNW 18:37:34 69° ENE 18:42:13 15° SSE
Cosmos 1933 Rocket 3.5 18:34:16 10° S 18:38:40 75° E 18:43:09 10° NNE
SL-4 R/B 2.1 18:38:19 10° WSW 18:42:03 43° S 18:44:49 15° ESE
IGS 5A 4.2 18:39:43 10° S 18:43:45 51° W 18:47:49 10° NNW
Meteor 1-13 Rocket 4.5 18:40:17 10° N 18:45:44 54° ENE 18:49:51 17° SE
Cosmos 1814 Rocket 4.0 18:41:07 10° NNW 18:46:21 79° ENE 18:50:23 18° SSE
CZ-2C R/B 4.3 18:42:33 10° N 18:47:15 36° WNW 18:51:57 10° SW
Meteor 1-14 Rocket 4.4 18:41:41 10° S 18:47:31 65° E 18:53:27 10° NNE
SL-16 R/B 2.6 18:42:00 10° NW 18:47:36 61° WSW 18:52:22 14° SSE
Iridium 4 Rocket 3.8 18:45:41 18° SE 18:48:12 34° E 18:51:59 10° NNE
Cosmos 2219 Rocket 3.1 18:43:09 10° NNW 18:48:34 42° NE 18:53:23 13° ESE
Cosmos 1869 Rocket 4.0 18:46:44 16° SSE 18:49:56 44° E 18:54:12 10° NNE
Cosmos 1954 Rocket 4.3 18:44:55 10° SW 18:50:15 73° WNW 18:55:36 10° NNE
USA 238 DEB 3.6 18:43:52 10° SW 18:50:30 70° SE 18:57:29 10° NE
USA 238 3.6 18:44:00 10° SW 18:50:37 70° SE 18:57:36 10° NE
Spot 2 Rocket 4.2 18:45:52 10° S 18:50:51 52° W 18:55:51 10° NNW
BREEZE-M DEB (TANK) 3.4 18:51:22 10° WSW 18:54:28 43° S 19:03:10 10° ESE
Cosmos 1741 Rocket 4.1 18:49:39 10° S 18:54:48 60° ESE 19:00:02 10° NNE
Cosmos 2322 4.1 18:49:49 10° NNW 18:55:25 56° NE 18:59:44 17° ESE
Okean 1-7 3.2 18:51:14 10° NNW 18:55:34 70° W 18:59:08 14° S
Cosmos 1703 Rocket 3.9 18:52:01 10° NNW 18:56:20 62° W 19:00:06 13° S
Cosmos 1570 Rocket 4.2 18:52:54 10° NNW 18:58:14 74° WSW 19:02:16 18° SSE
GENESIS II 4.4 18:56:59 10° NW 19:01:01 69° NE 19:03:36 21° ESE
CENTAUR R/B 2.7 18:55:20 10° SSW 19:01:20 57° SE 19:08:28 10° NE
Cosmos 2082 Rocket 2.9 18:55:46 10° SW 19:01:23 59° NW 19:07:00 10° NNE
Cosmos 1536 4.2 19:00:46 19° ESE 19:02:06 23° E 19:05:17 10° NE
Lacrosse 5 3.3 18:59:13 10° W 19:03:22 25° SW 19:06:26 15° S
Terra 1.8 19:01:13 19° SSE 19:04:41 88° ENE 19:09:30 10° NNW
Cosmos 1605 Rocket 4.3 18:58:40 10° SSW 19:04:44 67° WNW 19:10:50 10° N
Cosmos 2100 Rocket 4.0 19:00:45 14° S 19:06:04 63° E 19:12:10 10° NNE
Cosmos 2322 Rocket 2.7 19:00:50 10° NW 19:06:24 55° WSW 19:10:41 17° S
Cosmos 2208 Rocket 4.1 19:01:39 10° NNW 19:06:56 75° WSW 19:10:35 20° SSE
Cosmos 1238 Rocket 3.5 19:06:13 10° SW 19:08:59 37° WNW 19:11:54 10° N
Cosmos 2333 4.4 19:04:25 10° NNW 19:10:13 67° NE 19:14:16 20° SE
Cosmos 2173 Rocket 4.0 19:08:24 15° S 19:13:32 66° E 19:19:36 10° NNE
Cosmos 2237 4.3 19:08:26 10° NW 19:14:09 72° WSW 19:17:59 21° SSE
USA 276 4.0 19:12:39 10° WSW 19:14:46 17° SSW 19:14:46 17° SSW
SL-16 R/B 4.3 19:10:28 10° NNW 19:14:51 22° NNE 19:19:12 10° ENE
Geosat 4.4 19:12:52 18° ESE 19:16:26 55° NE 19:21:22 10° NNW
Cosmos 2360 Rocket 2.3 19:11:29 10° NW 19:17:11 75° WSW 19:20:54 22° SSE
Cosmos 1733 Rocket 4.0 19:20:26 25° SE 19:22:07 33° E 19:26:07 10° NNE
ALOS 2 4.2 19:20:18 15° ESE 19:22:50 24° ENE 19:26:23 10° N
FALCON 9 DEB 3.2 19:20:27 10° WSW 19:23:53 55° S 19:25:30 27° ESE
Cosmos 2084 Rocket 3.4 19:19:51 10° SSW 19:24:00 56° SE 19:28:15 10° ENE
Cosmos 1725 Rocket 4.4 19:20:03 21° SSE 19:24:02 49° E 19:30:06 10° NNE
Cosmos 44 4.4 19:20:51 10° WNW 19:25:14 34° WSW 19:28:10 19° S
Cosmos 1500 3.1 19:25:02 22° SSW 19:27:22 89° WNW 19:31:09 10° NNE
Cosmos 1459 Rocket 4.0 19:23:40 15° S 19:29:05 82° E 19:35:30 10° NNE
Cosmos 2016 Rocket 4.1 19:28:46 20° S 19:33:12 65° E 19:39:32 10° NNE
SAR-Lupe-2 3.7 19:29:48 10° NNE 19:33:24 72° WNW 19:35:52 19° SSW
USA 267 3.2 19:28:09 10° ENE 19:34:38 59° SSE 19:41:05 10° SW
Cosmos 2346 Rocket 4.4 19:28:48 10° NNW 19:34:54 87° W 19:38:55 23° S
MTI 4.3 19:32:01 10° NNE 19:34:58 38° E 19:35:16 37° ESE
COSMOS 2428 2.9 19:30:30 10° NNW 19:36:14 67° NE 19:39:52 23° SE
Cosmos 1356 3.6 19:37:15 40° SSE 19:38:07 53° E 19:41:29 10° NNE
Cosmos 1666 2.7 19:37:05 35° SSE 19:38:24 58° E 19:42:08 10° NNE
Cosmos 44 Rocket 3.3 19:35:41 10° NW 19:40:40 83° NE 19:43:33 26° SE
Cosmos 1242 Rocket 2.5 19:37:41 10° NNW 19:41:21 79° ENE 19:42:36 39° SSE
Cosmos 2221 Rocket 3.8 19:37:10 10° NNW 19:41:38 69° W 19:44:04 26° S
NOSS 3-2 (A) 3.7 19:35:59 10° WSW 19:42:01 76° NNW 19:49:04 10° NE
SPOT 5 3.9 19:40:39 15° SSW 19:43:43 33° W 19:47:47 10° NNW
Cosmos 2237 Rocket 3.1 19:40:58 10° NNW 19:46:21 42° NE 19:50:40 15° ESE
SL-27 R/B 3.1 19:46:33 12° SW 19:49:27 50° WNW 19:52:43 10° NNE
CRYOSAT 2 4.5 19:45:50 10° N 19:50:43 63° E 19:52:57 31° SSE
NOSS 3-2 (C) 3.5 19:45:12 10° SW 19:51:12 88° NW 19:58:13 10° NE
Cosmos 836 Rocket 4.4 19:46:58 10° NNW 19:52:14 86° ENE 19:54:50 31° SSE
Cosmos 1378 3.3 19:48:50 10° N 19:52:34 60° ENE 19:53:40 40° SE
Cosmos 1743 3.7 19:53:16 29° ESE 19:53:56 31° E 19:57:25 10° NNE
Lacrosse 4 Rocket 2.0 19:53:39 34° SE 19:54:07 35° ESE 19:57:57 10° NE
Cosmos 1378 Rocket 3.6 19:50:02 10° N 19:54:30 68° ENE 19:56:17 35° SSE
Cosmos 2333 Rocket 2.2 19:48:50 10° NW 19:54:40 86° WSW 19:57:45 29° SSE
ERBS 2.1 19:53:28 10° WNW 19:56:47 75° SSW 19:57:24 54° SE
Cosmos 2061 Rocket 3.9 19:52:30 21° S 19:56:52 87° E 20:03:06 10° NNE
Cosmos 1271 Rocket 2.8 19:55:25 10° N 19:59:12 64° ENE 20:00:19 41° SE
Cosmos 1066 Rocket 4.3 19:57:11 10° NNW 20:02:54 75° W 20:05:53 29° S
Meteor 1-11 Rocket 3.7 20:00:05 23° SSW 20:03:49 89° E 20:09:41 10° NNE
Cosmos 2233 Rocket 4.1 20:01:24 28° SSE 20:04:47 61° E 20:11:02 10° NNE
Cosmos 1802 Rocket 4.2 20:00:36 17° SSW 20:05:45 73° WNW 20:12:06 10° N
Cosmos 1544 4.2 20:13:03 28° E 20:13:19 29° E 20:16:32 10° NNE
USA 234 4.2 20:10:46 23° S 20:13:26 31° SW 20:19:10 10° WNW
Cosmos 1975 Rocket 3.9 20:10:05 10° N 20:14:24 42° ENE 20:16:03 30° ESE
Thor Agena Rocket 3.8 20:10:45 10° NNE 20:15:44 53° ESE 20:17:38 35° SSE
Cosmos 2344 4.3 20:07:58 10° NW 20:16:37 79° NE 20:28:32 10° ESE
SL-4 R/B 2.7 20:17:45 10° W 20:20:23 32° SW 20:20:23 32° SW
ATLAS 3B R/B 2.5 20:14:55 10° SW 20:21:28 70° SE 20:28:07 10° NE
COSMOS 2487 2.2 20:21:58 60° SSW 20:22:32 84° ESE 20:26:00 10° NNE
Spot 4 4.0 20:24:31 35° S 20:26:28 66° WSW 20:31:18 10° NNW
Iridium 4 Rocket 4.5 20:25:27 16° SW 20:28:15 31° WNW 20:31:59 10° NNW
Cosmos 2227 Rocket 4.1 20:27:48 13° ESE 20:28:50 14° E 20:31:32 10° ENE
SL-16 R/B 4.4 20:28:00 10° WNW 20:30:36 13° W 20:33:11 10° WSW
Cosmos 2219 Rocket 2.5 20:27:12 10° NW 20:32:46 56° WSW 20:35:05 34° S
NOSS 0 Rocket 3.9 20:27:09 10° NW 20:33:26 86° SW 20:36:37 31° SSE
Cosmos 1707 4.0 20:32:18 10° N 20:35:52 32° ENE 20:37:01 27° ESE
MOS 1-B Rocket 3.8 20:30:24 10° NNE 20:36:06 83° WNW 20:39:23 26° SSW
Cosmos 1025 Rocket 4.3 20:34:07 10° N 20:37:56 30° ENE 20:39:34 23° ESE
Cosmos 783 Rocket 4.4 20:32:56 10° NNW 20:38:13 85° WSW 20:40:19 38° SSE
Cosmos 1536 3.7 20:36:28 26° SW 20:38:18 45° WNW 20:42:09 10° N
Cosmos 1674 Rocket 4.4 20:35:25 10° NNW 20:39:30 41° W 20:41:02 29° SW
ATLAS 5 CENTAUR R/B 3.8 20:36:46 10° W 20:39:34 23° SW 20:39:34 23° SW
USA 238 DEB 4.4 20:35:08 10° W 20:41:48 55° NNW 20:48:49 10° ENE
USA 238 4.4 20:35:15 10° W 20:41:55 56° NNW 20:48:55 10° ENE
Terra 4.0 20:40:06 10° SW 20:43:07 17° W 20:46:15 10° NW
Cosmos 1833 4.2 20:42:36 20° SW 20:46:41 80° NW 20:52:25 10° NNE
Cosmos 1842 3.1 20:43:29 10° NNW 20:47:27 89° WSW 20:48:12 57° S
DNEPR-1 R/B 4.2 20:41:10 10° NW 20:47:33 84° NE 20:50:24 29° SE
EO 1 Del DPAF 3.1 20:44:17 10° NNE 20:48:05 83° ESE 20:48:44 59° S
Cosmos 2322 Rocket 4.5 20:47:16 10° WNW 20:49:13 12° W 20:51:10 10° WSW
Cosmos 1503 Rocket 4.2 20:48:41 38° S 20:50:32 59° ESE 20:55:49 10° NNE
Meteor 2-11 Rocket 4.4 20:48:24 33° S 20:51:22 87° E 20:57:31 10° NNE
CENTAUR R/B 3.2 20:45:39 10° WSW 20:52:06 62° NNW 20:59:48 10° NE
Sich 1 Rocket 4.3 20:53:36 35° ESE 20:54:30 39° E 20:58:37 10° NNE
Okean 2 3.4 20:50:38 10° NNW 20:54:45 69° W 20:55:39 50° SSW
Cosmos 1486 Rocket 4.0 20:53:33 31° SSW 20:56:07 84° WNW 21:01:23 10° NNE
ALOS 2 2.8 20:57:42 43° SSW 20:58:52 60° WSW 21:03:14 10° NNW
Cosmos 1733 Rocket 4.2 20:57:31 21° SW 20:59:53 38° WNW 21:04:03 10° N
Cosmos 2360 Rocket 4.1 20:56:44 10° WNW 21:00:16 17° W 21:02:39 13° SW
SL-16 R/B 2.9 20:54:42 10° NNW 21:00:17 52° NE 21:04:29 17° ESE
Meteor 1-21 4.2 20:57:20 10° NNW 21:03:11 80° WSW 21:05:34 37° S
Cosmos 1975 2.7 21:08:00 58° S 21:08:45 85° ESE 21:12:50 10° NNE
Cosmos 773 Rocket 4.0 21:07:59 10° NNW 21:13:06 68° WSW 21:14:44 42° S
SL-24 DEB 4.2 21:09:09 10° N 21:13:58 85° W 21:15:29 44° SSW
SL-16 R/B 4.1 21:08:51 10° ESE 21:14:09 30° NE 21:19:26 10° N
Cosmos 1536 Rocket 4.0 21:12:54 10° N 21:17:11 52° ENE 21:18:30 37° SE
USA 267 3.3 21:11:22 10° ENE 21:17:56 86° NNW 21:24:31 10° W
COSMOS 2428 3.8 21:15:11 10° NW 21:20:11 32° WSW 21:21:52 27° SW
Cosmos 968 Rocket 3.7 21:18:04 28° SW 21:20:45 66° WNW 21:25:54 10° NNE
Cosmos 2297 Rocket 3.0 21:20:13 30° SE 21:21:41 35° ESE 21:26:45 10° NE
Cosmos 1980 3.8 21:16:47 10° NW 21:22:22 60° WSW 21:24:20 39° S
Meteor 2-9 Rocket 4.2 21:21:24 38° S 21:23:44 88° ESE 21:29:35 10° NNE
Helios 1A 2.9 21:22:59 53° S 21:23:54 76° WSW 21:28:09 10° NNW
Cosmos 1538 Rocket 3.9 21:18:55 10° NNW 21:24:07 81° WSW 21:25:57 41° SSE
Cosmos 1782 Rocket 3.5 21:23:22 49° SSW 21:24:30 78° WNW 21:28:52 10° N
Cosmos 1607 3.9 21:19:05 10° NW 21:25:33 84° SW 21:29:33 25° SE
In-Cosmos 22 4.2 21:23:19 10° NNW 21:28:56 78° ENE 21:31:14 36° SSE
Cosmos 1743 4.1 21:28:20 25° WSW 21:29:42 33° WNW 21:33:16 10° N
Cosmos 2237 Rocket 2.4 21:25:07 10° NW 21:30:39 56° WSW 21:32:28 39° S
Cosmos 1908 Rocket 4.4 21:30:25 29° WSW 21:32:04 42° WNW 21:36:15 10° N
Lacrosse 4 Rocket 2.3 21:29:55 18° WSW 21:32:45 46° NW 21:36:47 10° NE
Cosmos 2219 3.6 21:31:18 36° SSE 21:32:57 45° ESE 21:38:18 10° NE
Cosmos 2026 Rocket 4.3 21:27:11 10° N 21:33:13 59° ENE 21:36:35 27° SE
Cosmos 2333 Rocket 3.8 21:34:02 10° NW 21:38:10 21° W 21:39:44 19° WSW
Timation 2 Rocket 3.9 21:41:09 36° SSW 21:43:43 70° ESE 21:49:41 10° NE
Cosmos 1544 4.4 21:47:21 27° W 21:48:18 31° WNW 21:51:38 10° N
Meteor 1-12 Rocket 4.4 21:45:54 36° S 21:48:27 73° E 21:54:29 10° NNE
Cosmos 2112 Rocket 4.4 21:43:33 10° NNW 21:48:46 60° ENE 21:52:04 22° SE
Cosmos 158 Rocket 4.2 21:45:20 10° NNW 21:50:43 70° ENE 21:53:51 26° SE
Cosmos 1437 3.5 21:48:49 10° NNW 21:51:12 40° WNW 21:51:12 40° WNW
Cosmos 1975 Rocket 4.3 21:48:13 10° NNW 21:52:08 30° W 21:53:12 27° WSW
Cosmos 1634 Rocket 4.4 21:50:33 29° SSE 21:53:32 53° E 21:59:32 10° NNE
Cosmos 1354 Rocket 4.4 21:53:25 27° SW 21:56:14 60° WNW 22:01:32 10° NNE
Cosmos 1674 2.7 21:53:52 10° N 21:57:37 69° ENE 21:58:19 53° SE
Cosmos 1464 Rocket 4.2 21:54:49 30° SW 21:57:56 62° WNW 22:04:05 10° N
Cosmos 1300 Rocket 3.4 21:57:17 51° S 21:58:20 90° SSE 22:02:41 10° NNE
Cosmos 1943 4.4 21:55:05 10° NNW 22:00:26 42° NE 22:05:45 10° ESE
Meteor 2-5 Rocket 4.0 21:57:12 10° N 22:02:49 64° ENE 22:05:56 26° SE
CZ-2D R/B 3.9 21:59:26 10° NE 22:03:49 24° E 22:06:57 15° SE
Cosmos 1680 Rocket 3.5 21:59:06 10° NNW 22:04:23 83° ENE 22:07:04 30° SSE
Nadezhda 4 Rocket 4.4 21:58:44 10° NNW 22:04:48 51° W 22:07:27 31° SSW
MOZ.5/SAFIR/RUBIN 5/SL-8 4.4 22:03:33 24° SE 22:06:11 53° ENE 22:10:48 10° N
Helios 1B rocket 2.7 22:03:42 10° NNE 22:07:46 56° ESE 22:08:43 44° SSE
Cosmos 1428 Rocket 4.5 22:02:02 10° NNW 22:08:22 90° NE 22:11:37 31° S
Cosmos 1766 4.3 22:10:01 30° SE 22:11:00 34° E 22:14:33 10° NNE
Cosmos 1707 3.8 22:08:13 10° NNW 22:11:44 32° W 22:12:09 31° WSW
Cosmos 2227 Rocket 2.3 22:09:36 36° S 22:11:47 62° ESE 22:17:24 10° NE
ATLAS 3B R/B 3.3 22:06:01 10° W 22:12:29 53° NNW 22:19:06 10° NE
Meteor 2-13 Rocket 4.5 22:08:00 10° NNW 22:14:03 69° W 22:16:50 34° S
Okean 2 Rocket 3.3 22:12:54 41° SW 22:14:17 64° WNW 22:18:48 10° N
Cosmos 1777 Rocket 4.0 22:12:29 37° SSW 22:14:38 89° WNW 22:20:00 10° NNE
Cosmos 2219 Rocket 4.3 22:13:24 10° WNW 22:15:31 12° W 22:16:46 11° WSW
Cosmos 1025 Rocket 3.7 22:11:39 10° NNW 22:15:39 39° W 22:16:26 35° WSW
Okean 1 Rocket 3.4 22:14:30 38° SSE 22:15:50 54° E 22:20:08 10° NNE
Meteor 1-29 3.6 22:13:31 10° NNE 22:16:51 42° E 22:17:19 40° ESE
SJ 16-02 2.2 22:18:08 31° SE 22:19:21 38° ESE 22:23:28 10° NE
Cosmos 1733 4.2 22:20:05 31° SE 22:21:08 37° E 22:24:43 10° NNE
CZ-4 R/B 3.9 22:17:18 10° NNE 22:22:20 87° WNW 22:24:20 38° SSW
Cosmos 1092 Rocket 4.2 22:18:20 10° NNW 22:24:26 56° W 22:27:10 32° SSW
NOSS 8 (A) 4.3 22:25:25 58° WNW 22:25:45 65° NW 22:28:51 10° NE
Cosmos 1626 2.4 22:23:34 10° N 22:27:16 62° ENE 22:28:26 39° SE
UNK 4.2 22:25:25 22° SE 22:28:17 59° ENE 22:32:54 10° N
Okean 1-7 Rocket 4.4 22:25:39 10° N 22:29:57 48° ENE 22:32:39 21° SE
Cosmos 2034 Rocket 4.5 22:26:37 27° SW 22:29:57 52° WNW 22:36:11 10° N
Landsat 4 4.0 22:27:10 10° N 22:30:55 57° WNW 22:31:50 43° WSW
Cosmos 724 4.2 22:26:14 10° NW 22:32:15 80° SW 22:38:08 11° SE
Cosmos 1805 3.3 22:32:35 46° SSE 22:33:34 68° E 22:37:27 10° NNE
Cosmos 923 Rocket 4.3 22:31:51 10° NW 22:37:00 49° WSW 22:38:48 35° SSW
Cosmos 2082 3.9 22:34:49 32° S 22:37:14 58° ESE 22:42:46 10° NE
Spot 1 3.8 22:39:25 40° SSE 22:40:51 84° WSW 22:44:58 10° NNW
Resurs 1-4 Rocket 3.0 22:36:29 10° NNE 22:41:29 41° E 22:44:27 22° SSE
Cosmos 1455 Rocket 4.3 22:41:31 21° SE 22:43:49 35° E 22:47:55 10° NNE
CENTAUR R/B 4.0 22:37:16 10° WNW 22:44:01 47° N 22:51:53 10° ENE
SL-16 R/B 2.7 22:39:02 10° NW 22:44:23 42° WSW 22:46:18 32° SSW
Cosmos 2151 Rocket 4.2 22:45:26 31° WSW 22:47:01 44° WNW 22:51:16 10° N
SL-14 R/B 3.1 22:45:20 10° NNW 22:49:16 86° W 22:50:33 41° S
Cosmos 1892 Rocket 3.5 22:47:04 10° NNW 22:51:33 90° NNW 22:53:36 32° S
Cosmos 2263 Rocket 3.7 22:49:31 15° SSE 22:52:47 25° ESE 22:57:13 10° NE
Cosmos 2098 Rocket 3.9 22:49:38 10° N 22:54:49 75° ENE 22:59:48 17° SSE
SL-16 R/B 2.5 22:52:56 22° SSE 22:57:16 80° WSW 23:03:34 10° NNW
CZ-4C R/B 3.0 22:58:24 38° SSE 22:59:40 90° ENE 23:03:24 10° NNW
NOSS 3-1 (C) 3.9 22:57:24 27° S 23:00:08 45° SE 23:06:20 10° NE
Cosmos 1655 Rocket 3.9 22:54:23 10° NNW 23:00:42 82° W 23:04:51 23° S
USA 267 3.3 22:54:24 10° E 23:00:58 83° N 23:07:33 10° WNW
DELTA 2 DEB (DPAF) 4.2 23:02:23 34° SSW 23:04:10 60° WSW 23:08:36 10° NNW
Uosat 12 SS-18 rocket 4.3 23:02:10 24° WSW 23:04:53 67° NW 23:09:13 10° NE
Cosmos 2297 Rocket 2.5 23:02:01 23° WSW 23:05:30 61° NW 23:11:08 10° NNE
Meteor 1-15 Rocket 4.4 23:05:38 28° SW 23:08:36 59° WNW 23:14:08 10° N
Lacrosse 4 Rocket 4.0 23:09:24 10° WNW 23:12:22 18° NNW 23:15:19 10° NNE
Cosmos 2237 Rocket 4.2 23:11:32 10° WNW 23:13:30 12° W 23:14:16 12° WSW
Meteor 1-24 Rocket 3.8 23:08:49 10° NNW 23:14:07 54° W 23:16:49 27° SSW
ADEOS II 3.3 23:10:27 10° NNE 23:15:16 35° E 23:19:38 12° SSE
Cosmos 1461 3.1 23:13:38 32° SSW 23:15:38 75° SE 23:20:17 10° NE
Cosmos 2219 3.9 23:13:12 18° WSW 23:17:09 48° NW 23:22:37 10° NNE
IRAS Rocket 4.4 23:16:04 24° S 23:19:20 57° WSW 23:24:53 10° NNW
Cosmos 2279 Rocket 4.1 23:20:54 25° SSW 23:24:40 65° WNW 23:30:53 10° N
SL-24 R/B 4.5 23:21:41 22° S 23:24:58 84° W 23:30:25 10° N
Cosmos 1603 3.7 23:19:19 10° NW 23:25:01 64° WSW 23:30:32 11° SSE
BREEZE-M TANK 4.2 23:25:51 18° SSE 23:25:51 18° SSE 23:28:50 10° SE
GEOS 3 Rocket 4.2 23:22:27 10° NE 23:27:40 47° SE 23:30:53 22° SSW
Cosmos 1937 Rocket 3.7 23:24:35 24° S 23:27:47 66° ESE 23:33:05 10° NNE
Cosmos 1726 3.3 23:27:44 17° SSE 23:30:10 37° E 23:33:34 10° NNE
Cosmos 1544 Rocket 3.8 23:28:26 22° S 23:31:14 67° E 23:35:41 10° NNE
Cosmos 990 Rocket 3.9 23:29:02 26° SSW 23:32:03 87° WNW 23:37:16 10° NNE
CZ-4B R/B 3.8 23:29:38 10° NNE 23:34:19 54° ESE 23:37:48 17° S
USA 229 DEB 3.8 23:32:46 22° SSW 23:37:09 64° SE 23:44:03 10° NE
USA 229 3.8 23:32:52 22° SSW 23:37:13 64° SE 23:44:06 10° NE
Cosmos 1758 3.4 23:36:38 24° S 23:38:58 78° E 23:42:59 10° NNE
Cosmos 1340 Rocket 2.7 23:37:29 26° S 23:39:40 83° E 23:43:37 10° NNE
COBE Rocket 3.7 23:36:41 19° S 23:40:01 70° WSW 23:44:42 10° NNW
CBERS-1 4.5 23:36:07 10° NNE 23:41:11 57° ESE 23:45:19 15° S
Helios 1B rocket 4.1 23:39:29 10° N 23:42:45 23° WNW 23:45:01 15° W
Cosmos 1898 Rocket 3.5 23:39:48 23° SW 23:43:05 79° WNW 23:48:20 10° NNE
CZ-2D R/B 2.2 23:38:57 10° NNE 23:44:28 77° WNW 23:48:16 21° SSW
Cosmos 1943 3.3 23:39:13 10° NW 23:44:42 55° WSW 23:50:10 10° SSE
ARIANE 5 R/B 3.9 23:40:22 10° NNE 23:45:09 34° E 23:49:54 10° SSE
Meteor 2-14 Rocket 4.4 23:39:53 10° NNW 23:46:00 88° W 23:52:05 10° S
Cosmos 1602 Rocket 3.5 23:42:31 10° NNW 23:46:55 90° SW 23:50:50 13° S
NOSS 2-3 (C) 4.3 23:44:18 22° SSW 23:46:56 48° SE 23:52:04 10° NE
Cosmos 1766 4.5 23:45:23 20° WSW 23:47:07 29° WNW 23:50:34 10° N
Cosmos 1703 4.0 23:43:39 10° N 23:47:34 53° ENE 23:51:27 10° SSE
SL-08 R/B 3.6 23:43:22 10° SSE 23:48:19 75° ENE 23:53:15 10° NNW
NOSS 3-1 (A) 3.7 23:44:33 20° SSW 23:48:23 56° SE 23:54:54 10° NE
Cosmos 1900 4.5 23:43:18 10° NW 23:48:28 86° NE 23:53:39 10° SE
Meteor 1-22 Rocket 4.5 23:50:36 21° SW 23:54:01 51° WNW 23:59:20 10° N
Cosmos 1953 2.7 23:52:42 16° S 23:55:51 63° E 23:59:53 10° NNE
